Regional Weather Roundup
Issued by NWS Little Rock, AR

Home | Current Version | Previous Version | Graphics & Text | Print | Product List | Glossary On
Versions: 1 2 3 4 5 6 7 8 9 10 11 12 13 14 15 16 17 18 19 20 21 22 23 24 25 26 27 28 29 30 31 32 33 34 35 36 37 38 39 40 41 42 43 44 45 46 47 48 49 50
839
ASUS44 KLZK 221705
RWRLZK

WEATHER ROUNDUP FOR ARKANSAS
NATIONAL WEATHER SERVICE LITTLE ROCK AR
1200 PM CDT WED MAR 22 2017

NOTE: "FAIR" INDICATES FEW OR NO CLOUDS BELOW 12,000 FEET WITH NO
SIGNIFICANT WEATHER AND/OR OBSTRUCTIONS TO VISIBILITY.

ARZ001-003-010-029-221800-
NORTHWEST ARKANSAS

CITY           SKY/WX    TMP DP  RH WIND       PRES   REMARKS
FAYETTEVILLE   CLOUDY    53  41  63 E10       30.25F
FORT SMITH     CLOUDY    56  41  57 E15       30.25R
HARRISON       CLOUDY    47  36  65 E12       30.32F
BENTONVILLE    CLOUDY    50  34  53 SE13      30.26F
ROGERS         CLOUDY    49  37  63 E15G24    30.25F
SILOAM SPGS    CLOUDY    54  37  54 SE10G23   30.24S
HIGHFILL       CLOUDY    51  36  56 E17       30.25F
SPRINGDALE     CLOUDY    50  36  57 E13G24    30.27F
$$

ARZ004-005-016-221800-
NORTH CENTRAL ARKANSAS

CITY           SKY/WX    TMP DP  RH WIND       PRES   REMARKS
BATESVILLE     CLOUDY    55  37  50 E17       30.35F
FLIPPIN        CLOUDY    52  32  46 E9        30.31F
$$

ARZ040-041-221800-
WEST CENTRAL ARKANSAS

CITY           SKY/WX    TMP DP  RH WIND       PRES   REMARKS
MENA           SUNNY     64  50  59 E12       30.22F
MOUNT IDA      PTSUNNY   58  44  60 VRB3      30.23S
$$

ARZ009-017-025-026-028-221800-
NORTHEAST ARKANSAS

CITY           SKY/WX    TMP DP  RH WIND       PRES   REMARKS
CORNING        FAIR      52  36  54 NE21      30.39R
JONESBORO      PTSUNNY   53  40  61 NE17      30.36R
NEWPORT        CLOUDY    53  43  68 NE16      30.36R
WALNUT RIDGE   SUNNY     52  37  58 NE20G25   30.37S
BLYTHEVILLE    MOSUNNY   54  40  59 NE20      30.35R
$$

ARZ022-023-033-042-044-221800-
CENTRAL ARKANSAS

CITY           SKY/WX    TMP DP  RH WIND       PRES   REMARKS
LITTLE ROCK    PTSUNNY   55  43  63 NE15      30.31F
N LITTLE ROCK    N/A     54  44  70 E12G20    30.30F
CONWAY           N/A     54  43  66 NE10G17   30.30F
SEARCY         CLOUDY    54  43  66 NE16      30.33F
HOT SPRINGS    PTSUNNY   59  46  62 E13       30.28S
RUSSELLVILLE   CLOUDY    53  40  61 E8        30.31S
CLINTON        CLOUDY    52  41  66 NE6       30.33F
$$

ARZ036-221800-
EAST ARKANSAS

CITY           SKY/WX    TMP DP  RH WIND       PRES   REMARKS
WEST MEMPHIS     N/A     54  43  66 NE12      30.31R
$$

ARZ050-053-066-070-073-221800-
SOUTHWEST ARKANSAS

CITY           SKY/WX    TMP DP  RH WIND       PRES   REMARKS
ARKADELPHIA    FAIR      62  49  62 NE8       30.27F
CAMDEN         MOSUNNY   68  48  49 E7        30.25F
TEXARKANA      CLOUDY    63  51  65 E7        30.22R
EL DORADO      MOSUNNY   66  51  58 NE10      30.23F
DE QUEEN       MOSUNNY   64  51  62 E8G18     30.20F
$$

ARZ056-057-069-221800-
SOUTHEAST ARKANSAS

CITY           SKY/WX    TMP DP  RH WIND       PRES   REMARKS
PINE BLUFF     PTSUNNY   57  46  66 E8        30.28F
STUTTGART      PTSUNNY   57  39  51 NE18      30.30F
MONTICELLO     MOSUNNY   62  48  60 NE7       30.26S

$$






USA.gov is the U.S. government's official web portal to all federal, state and local government web resources and services.